TimeCEST,TemperatureF,Dew PointF,Humidity,Sea Level PressureIn,VisibilityMPH,Wind Direction,Wind SpeedMPH,Gust SpeedMPH,PrecipitationIn,Events,Conditions,WindDirDegrees,DateUTC
12:55 AM,68.0,48.2,49,30.09,-9999.0,East,5.8,-,N/A,,Clear,80,2013-06-12 22:55:00
1:55 AM,66.2,48.2,52,30.09,-9999.0,ENE,5.8,-,N/A,,Clear,70,2013-06-12 23:55:00
2:00 AM,66,48,42,30.11,12,ENE,5.8,,,,,70,2013-06-13 00:00:00
2:55 AM,64.4,48.2,56,30.09,-9999.0,ENE,8.1,-,N/A,,Clear,70,2013-06-13 00:55:00
3:55 AM,66.2,48.2,52,30.09,-9999.0,ENE,8.1,-,N/A,,Clear,70,2013-06-13 01:55:00
4:55 AM,64.4,46.4,52,30.09,-9999.0,NE,8.1,-,N/A,,Clear,50,2013-06-13 02:55:00
5:55 AM,64.4,46.4,52,30.09,-9999.0,NE,6.9,-,N/A,,Clear,40,2013-06-13 03:55:00
6:55 AM,66.2,48.2,52,30.09,-9999.0,ENE,4.6,-,N/A,,Clear,60,2013-06-13 04:55:00
7:55 AM,68.0,50.0,52,30.09,-9999.0,NE,6.9,-,N/A,,Clear,50,2013-06-13 05:55:00
8:00 AM,68,51,43,30.12,12,NE,6.9,,,,,50,2013-06-13 06:00:00
8:55 AM,71.6,53.6,53,30.09,-9999.0,North,2.3,-,N/A,,Clear,350,2013-06-13 06:55:00
9:55 AM,73.4,50.0,44,30.09,-9999.0,WNW,2.3,-,N/A,,Clear,290,2013-06-13 07:55:00
10:55 AM,73.4,57.2,57,30.09,-9999.0,East,4.6,-,N/A,,Clear,100,2013-06-13 08:55:00
11:55 AM,77.0,59.0,54,30.06,-9999.0,WNW,6.9,-,N/A,,Clear,290,2013-06-13 09:55:00
12:55 PM,80.6,50.0,34,30.06,-9999.0,NNW,6.9,-,N/A,,Clear,330,2013-06-13 10:55:00
1:55 PM,80.6,59.0,48,30.04,-9999.0,West,11.5,-,N/A,,Clear,260,2013-06-13 11:55:00
2:00 PM,80,59,39,30.06,12,West,11.5,,,,,260,2013-06-13 12:00:00
2:55 PM,44.6,30.2,57,30.18,-9999.0,West,10.4,-,N/A,,Clear,280,2013-06-13 12:55:00
3:55 PM,78.8,64.4,61,30.01,-9999.0,NW,6.9,-,N/A,,Clear,310,2013-06-13 13:55:00
4:55 PM,78.8,62.6,57,30.01,-9999.0,NNW,2.3,-,N/A,,Clear,330,2013-06-13 14:55:00
5:55 PM,78.8,60.8,54,30.01,-9999.0,NNW,4.6,-,N/A,,Clear,340,2013-06-13 15:55:00
6:55 PM,78.8,64.4,61,29.98,-9999.0,NNW,2.3,-,N/A,,Clear,340,2013-06-13 16:55:00
7:55 PM,75.2,62.6,65,29.98,-9999.0,South,5.8,-,N/A,,Clear,170,2013-06-13 17:55:00
8:00 PM,75,62,56,30.00,12,South,5.8,,,,,170,2013-06-13 18:00:00
8:55 PM,73.4,64.4,73,29.98,-9999.0,ENE,6.9,-,N/A,,Clear,70,2013-06-13 18:55:00
9:55 PM,69.8,62.6,78,29.98,-9999.0,ENE,5.8,-,N/A,,Clear,60,2013-06-13 19:55:00
10:55 PM,68.0,60.8,78,29.98,-9999.0,ENE,5.8,-,N/A,,Clear,60,2013-06-13 20:55:00
11:55 PM,68.0,60.8,78,29.98,-9999.0,NE,2.3,-,N/A,,Clear,50,2013-06-13 21:55:00